Weather History for Eastover, SC

Change the Weather History Date:

Sunday, November 25, 2012

  Actual Average Record
Temperature  
Mean Temperature 42 °F -  
Max Temperature 58 °F 63 °F 75 °F (1996)
Min Temperature 27 °F 41 °F 20 °F (2013)
Degree Days  
Heating Degree Days 22    
Moisture  
Dew Point 22 °F    
Average Humidity 51    
Maximum Humidity 80    
Minimum Humidity 23    
Precipitation  
Precipitation 0.00 in - - ()
Sea Level Pressure  
Sea Level Pressure 30.15 in    
Wind  
Wind Speed 3 mph (South)    
Max Wind Speed 7 mph    
Max Gust Speed -    
Visibility 8 miles    
Events      
Averages and records for this station are not official NWS values.
T = Trace of Precipitation, MM = Missing Value Source: NWS Daily Summary

Daily Weather History Graph

Daily Weather History Graph

Search for Another Location

Airport:

Trip Planner

Search our weather history database for the weather conditions in past years. The results will help you decide how hot, cold, wet, or windy it might be!

Date:

Astronomy

Nov. 25, 2012 Rise Set
Actual Time 7:05 AM EST 5:15 PM EST
Civil Twilight 6:38 AM EST 5:42 PM EST
Nautical Twilight 6:07 AM EST 6:12 PM EST
Astronomical Twilight 5:37 AM EST 6:42 PM EST
Moon 3:26 PM EST (11/25) 4:23 AM EST (11/25)
Length of Visible Light 11h 04m
Length of Day
10h 09m
Waxing Gibbous, 93% of the Moon is Illuminated
Nov 25
Waxing Gibbous
Nov 28
Full
Dec 6
Last Quarter
Dec 13
New
Dec 20
First Quarter

Hourly Weather History & Observations

Time (EST) Temp. Windchill Dew Point Humidity Pressure Visibility Wind Dir Wind Speed Gust Speed Precip Events Conditions
12:55 AM 38.7 °F 35.2 °F 18.1 °F 44% 30.12 in 5.0 mi Variable 4.6 mph - N/A   Haze
1:55 AM 37.0 °F 34.5 °F 17.8 °F 46% 30.13 in 6.0 mi NE 3.5 mph - N/A   Haze
2:55 AM 35.1 °F 31.0 °F 17.8 °F 49% 30.14 in 6.0 mi NE 4.6 mph - N/A   Haze
3:55 AM 32.5 °F 28.1 °F 19.6 °F 59% 30.15 in 5.0 mi ENE 4.6 mph - N/A   Haze
4:55 AM 31.8 °F - 19.2 °F 60% 30.16 in 6.0 mi Calm Calm - N/A   Haze
5:55 AM 30.0 °F - 19.4 °F 65% 30.17 in 6.0 mi Calm Calm - N/A   Haze
6:55 AM 27.3 °F - 21.2 °F 78% 30.19 in 8.0 mi Calm Calm - N/A   Clear
7:55 AM 28.9 °F - 23.4 °F 80% 30.20 in 7.0 mi Calm Calm - N/A   Clear
8:55 AM 37.9 °F 33.5 °F 20.5 °F 49% 30.23 in 5.0 mi ENE 5.8 mph - N/A   Haze
9:55 AM 42.4 °F 39.6 °F 19.2 °F 39% 30.23 in 5.0 mi Variable 4.6 mph - N/A   Haze
10:55 AM 45.3 °F - 18.7 °F 35% 30.21 in 4.0 mi Calm Calm - N/A   Haze
11:55 AM 50.2 °F - 20.1 °F 31% 30.18 in 6.0 mi SSW 3.5 mph - N/A   Haze
12:55 PM 53.8 °F - 21.9 °F 29% 30.14 in 10.0 mi Variable 3.5 mph - N/A   Clear
1:55 PM 55.9 °F - 22.3 °F 27% 30.12 in 10.0 mi SW 6.9 mph - N/A   Clear
2:55 PM 58.6 °F - 21.2 °F 24% 30.08 in 10.0 mi SW 3.5 mph - N/A   Clear
3:55 PM 58.5 °F - 20.3 °F 23% 30.08 in 10.0 mi South 5.8 mph - N/A   Clear
4:55 PM 55.8 °F - 21.7 °F 27% 30.09 in 10.0 mi SW 5.8 mph - N/A   Clear
5:55 PM 50.2 °F - 22.3 °F 34% 30.10 in 10.0 mi South 4.6 mph - N/A   Clear
6:55 PM 42.1 °F - 27.1 °F 55% 30.12 in 10.0 mi Calm Calm - N/A   Clear
7:55 PM 39.2 °F - 27.7 °F 63% 30.13 in 10.0 mi Calm Calm - N/A   Clear
8:55 PM 36.0 °F - 27.7 °F 72% 30.13 in 10.0 mi Calm Calm - N/A   Clear
9:55 PM 34.0 °F - 26.4 °F 74% 30.14 in 10.0 mi Calm Calm - N/A   Clear
10:55 PM 32.7 °F - 26.1 °F 76% 30.14 in 10.0 mi Calm Calm - N/A   Clear
11:55 PM 31.5 °F - 25.2 °F 78% 30.14 in 10.0 mi Calm Calm - N/A   Clear